Rolla, ND

5:26 AM CDT on May 26, 2017 (GMT -0500)
Rolla

Weather History for K06D - May, 2013

Change the Weather History Date:

Monday, May 6, 2013

  Actual Average (KRUG) Record (KRUG)
Temperature  
Mean Temperature 56 °F -  
Max Temperature 71 °F 64 °F 84 °F (1953)
Min Temperature 41 °F 38 °F 18 °F (1989)
Degree Days  
Heating Degree Days 9    
Growing Degree Days 6 (Base 50)    
Moisture  
Dew Point 34 °F    
Average Humidity 48    
Maximum Humidity 87    
Minimum Humidity 20    
Precipitation  
Precipitation 0.00 in - - ()
Sea Level Pressure  
Sea Level Pressure 30.06 in    
Wind  
Wind Speed 10 mph (SW)    
Max Wind Speed 15 mph    
Max Gust Speed 18 mph    
Visibility 10 miles    
Events      
Averages and records for this station are not official NWS values.
T = Trace of Precipitation, MM = Missing Value Source: NWS Daily Summary

Daily Weather History Graph

Daily Weather History Graph

Search for Another Location

Airport or City:

Trip Planner

Search our weather history database for the weather conditions in past years. The results will help you decide how hot, cold, wet, or windy it might be!

Date:

Astronomy

May. 06, 2013 Rise Set
Actual Time 6:09 AM CDT 9:01 PM CDT
Civil Twilight 5:32 AM CDT 9:38 PM CDT
Nautical Twilight 4:46 AM CDT 10:25 PM CDT
Astronomical Twilight 3:49 AM CDT 11:22 PM CDT
Moon 4:28 AM CDT (5/6) 5:49 PM CDT (5/6)
Length of Visible Light 16h 05m
Length of Day
14h 52m
Waning Crescent, 11% of the Moon is Illuminated
May 6
Waning Crescent
May 9
New
May 17
First Quarter
May 24
Full
May 31
Last Quarter

Hourly Weather History & Observations

Time (CDT) Temp. Windchill Dew Point Humidity Pressure Visibility Wind Dir Wind Speed Gust Speed Precip Events Conditions
12:15 AM 42.8 °F 37.5 °F 39.2 °F 87% 30.12 in 10.0 mi SW 9.2 mph - N/A   Partly Cloudy
12:35 AM 42.8 °F 36.6 °F 37.4 °F 81% 30.12 in 10.0 mi SW 11.5 mph - N/A   Partly Cloudy
12:55 AM 44.6 °F 38.4 °F 35.6 °F 71% 30.12 in 10.0 mi SW 12.7 mph - N/A   Partly Cloudy
1:15 AM 44.6 °F 38.4 °F 35.6 °F 71% 30.12 in 10.0 mi SW 12.7 mph - N/A   Partly Cloudy
1:35 AM 41.0 °F 34.7 °F 35.6 °F 81% 30.12 in 10.0 mi SW 10.4 mph - N/A   Partly Cloudy
1:55 AM 41.0 °F 35.8 °F 35.6 °F 81% 30.12 in 10.0 mi SSW 8.1 mph - N/A   Partly Cloudy
2:15 AM 42.8 °F 37.0 °F 33.8 °F 70% 30.11 in 10.0 mi SW 10.4 mph - N/A   Partly Cloudy
2:35 AM 41.0 °F 33.9 °F 33.8 °F 76% 30.11 in 10.0 mi WSW 12.7 mph - N/A   Partly Cloudy
2:55 AM 41.0 °F 33.9 °F 32.0 °F 70% 30.10 in 10.0 mi WSW 12.7 mph - N/A   Partly Cloudy
3:15 AM 41.0 °F 33.5 °F 32.0 °F 70% 30.10 in 10.0 mi WSW 13.8 mph - N/A   Partly Cloudy
3:35 AM 41.0 °F 33.1 °F 32.0 °F 70% 30.10 in 10.0 mi WSW 15.0 mph - N/A   Partly Cloudy
3:55 AM 41.0 °F 33.5 °F 32.0 °F 70% 30.09 in 10.0 mi WSW 13.8 mph - N/A   Partly Cloudy
4:15 AM 41.0 °F 33.9 °F 32.0 °F 70% 30.09 in 10.0 mi WSW 12.7 mph - N/A   Partly Cloudy
4:35 AM 41.0 °F 33.5 °F 32.0 °F 70% 30.09 in 10.0 mi WSW 13.8 mph - N/A   Partly Cloudy
4:55 AM 41.0 °F 33.5 °F 32.0 °F 70% 30.09 in 10.0 mi WSW 13.8 mph - N/A   Partly Cloudy
5:15 AM 41.0 °F 33.5 °F 32.0 °F 70% 30.09 in 10.0 mi WSW 13.8 mph - N/A   Scattered Clouds
5:35 AM 41.0 °F 33.5 °F 32.0 °F 70% 30.09 in 10.0 mi WSW 13.8 mph - N/A   Partly Cloudy
5:55 AM 41.0 °F 33.5 °F 32.0 °F 70% 30.09 in 10.0 mi WSW 13.8 mph - N/A   Clear
6:15 AM 41.0 °F 33.9 °F 32.0 °F 70% 30.09 in 10.0 mi WSW 12.7 mph - N/A   Clear
6:35 AM 41.0 °F 34.3 °F 32.0 °F 70% 30.09 in 10.0 mi WSW 11.5 mph - N/A   Clear
6:55 AM 44.6 °F 38.1 °F 32.0 °F 61% 30.09 in 10.0 mi West 13.8 mph - N/A   Clear
7:15 AM 48.2 °F - 32.0 °F 54% 30.09 in 10.0 mi West 13.8 mph - N/A   Clear
7:35 AM 50.0 °F - 32.0 °F 50% 30.09 in 10.0 mi West 13.8 mph - N/A   Clear
7:55 AM 51.8 °F - 32.0 °F 47% 30.09 in 10.0 mi West 15.0 mph - N/A   Clear
8:15 AM 53.6 °F - 32.0 °F 44% 30.10 in 10.0 mi West 11.5 mph - N/A   Clear
8:35 AM 55.4 °F - 32.0 °F 41% 30.10 in 10.0 mi West 13.8 mph - N/A   Clear
8:55 AM 57.2 °F - 32.0 °F 38% 30.09 in 10.0 mi West 11.5 mph 18.4 mph N/A   Clear
9:15 AM 59.0 °F - 33.8 °F 39% 30.09 in 10.0 mi West 11.5 mph - N/A   Clear
9:35 AM 60.8 °F - 33.8 °F 36% 30.09 in 10.0 mi West 10.4 mph - N/A   Clear
9:55 AM 62.6 °F - 33.8 °F 34% 30.09 in 10.0 mi West 10.4 mph - N/A   Clear
10:15 AM 62.6 °F - 35.6 °F 37% 30.09 in 10.0 mi West 11.5 mph - N/A   Clear
10:35 AM 62.6 °F - 33.8 °F 34% 30.08 in 10.0 mi West 9.2 mph - N/A   Clear
10:55 AM 64.4 °F - 32.0 °F 30% 30.08 in 10.0 mi WNW 8.1 mph - N/A   Clear
11:15 AM 64.4 °F - 33.8 °F 32% 30.08 in 10.0 mi West 6.9 mph - N/A   Clear
11:35 AM 64.4 °F - 30.2 °F 28% 30.08 in 10.0 mi West 6.9 mph - N/A   Clear
11:55 AM 66.2 °F - 32.0 °F 28% 30.08 in 10.0 mi West 9.2 mph - N/A   Clear
12:15 PM 66.2 °F - 32.0 °F 28% 30.08 in 10.0 mi Calm Calm - N/A   Clear
12:35 PM 66.2 °F - 30.2 °F 26% 30.08 in 10.0 mi Calm Calm - N/A   Clear
12:55 PM 66.2 °F - 28.4 °F 24% 30.07 in 10.0 mi NNW 3.5 mph - N/A   Unknown
1:15 PM 66.2 °F - 30.2 °F 26% 30.07 in 10.0 mi ESE 4.6 mph - N/A   Unknown
1:35 PM 68.0 °F - 32.0 °F 26% 30.07 in 10.0 mi Calm Calm - N/A   Unknown
1:55 PM 68.0 °F - 32.0 °F 26% 30.06 in 10.0 mi ESE 5.8 mph - N/A   Unknown
2:15 PM 68.0 °F - 32.0 °F 26% 30.06 in 10.0 mi East 6.9 mph - N/A   Unknown
2:35 PM 68.0 °F - 32.0 °F 26% 30.06 in 10.0 mi Calm Calm - N/A   Unknown
2:55 PM 68.0 °F - 30.2 °F 24% 30.05 in 10.0 mi East 3.5 mph - N/A   Unknown
3:15 PM 68.0 °F - 30.2 °F 24% 30.04 in 10.0 mi Calm Calm - N/A   Unknown
3:35 PM 68.0 °F - 28.4 °F 23% 30.04 in 10.0 mi Calm Calm - N/A   Unknown
3:55 PM 68.0 °F - 32.0 °F 26% 30.04 in 10.0 mi East 3.5 mph - N/A   Unknown
4:15 PM 71.6 °F - 28.4 °F 20% 30.03 in 10.0 mi Calm Calm - N/A   Unknown
4:35 PM 71.6 °F - 28.4 °F 20% 30.02 in 10.0 mi NNE 4.6 mph - N/A   Clear
4:55 PM 71.6 °F - 32.0 °F 23% 30.02 in 10.0 mi Calm Calm - N/A   Clear
5:15 PM 69.8 °F - 37.4 °F 31% 30.02 in 10.0 mi SE 9.2 mph - N/A   Clear
5:55 PM 68.0 °F - 35.6 °F 30% 30.01 in 10.0 mi SE 11.5 mph 16.1 mph N/A   Clear
6:15 PM 68.0 °F - 35.6 °F 30% 30.01 in 10.0 mi SE 11.5 mph - N/A   Clear
6:35 PM 68.0 °F - 35.6 °F 30% 30.01 in 10.0 mi SSE 9.2 mph - N/A   Clear
6:55 PM 68.0 °F - 35.6 °F 30% 30.01 in 10.0 mi South 10.4 mph - N/A   Clear
7:15 PM 66.2 °F - 37.4 °F 35% 30.01 in 10.0 mi SSE 11.5 mph - N/A   Clear
7:35 PM 66.2 °F - 37.4 °F 35% 30.01 in 10.0 mi South 10.4 mph - N/A   Clear
7:55 PM 64.4 °F - 39.2 °F 40% 30.00 in 10.0 mi South 6.9 mph - N/A   Clear
8:15 PM 62.6 °F - 39.2 °F 42% 30.00 in 10.0 mi SSW 8.1 mph - N/A   Clear
8:35 PM 60.8 °F - 41.0 °F 48% 30.00 in 10.0 mi SSW 8.1 mph - N/A   Clear
8:55 PM 57.2 °F - 41.0 °F 55% 30.00 in 10.0 mi South 9.2 mph - N/A   Clear
9:15 PM 57.2 °F - 41.0 °F 55% 30.00 in 10.0 mi SSW 8.1 mph - N/A   Clear
9:35 PM 55.4 °F - 41.0 °F 58% 30.01 in 10.0 mi South 10.4 mph - N/A   Clear
9:55 PM 53.6 °F - 42.8 °F 67% 30.01 in 10.0 mi SSW 9.2 mph - N/A   Clear
10:15 PM 50.0 °F - 41.0 °F 71% 30.01 in 10.0 mi SSW 8.1 mph - N/A   Clear
10:35 PM 50.0 °F - 39.2 °F 66% 30.01 in 10.0 mi SW 8.1 mph - N/A   Clear
10:55 PM 48.2 °F - 39.2 °F 71% 30.01 in 10.0 mi SW 6.9 mph - N/A   Clear
11:15 PM 50.0 °F - 39.2 °F 66% 30.01 in 10.0 mi SW 6.9 mph - N/A   Clear
11:35 PM 50.0 °F - 37.4 °F 62% 30.01 in 10.0 mi SSW 5.8 mph - N/A   Clear
11:55 PM 48.2 °F - 35.6 °F 62% 30.01 in 10.0 mi SSW 5.8 mph - N/A   Clear